"Pseudo-MPEC" for X80637

Created 2022 Dec 16 10:22:16 UT using Find_Orb

Click here for an explanation of pseudo-MPECs

 
 Astrometry: 
     X80637 * C2022 11 24APc.Astrometry:L=Xpredacted;B6Dqxhrtc(EjH#GPOKJ,GT,0D29
     X80637   C2022 11 24b2hqD^94)02K)`51+clickYhere3bcfor7,gw-A)=)^)rU(0ImYOD29
     X80637   C2022 11 24sbibNexplanationuAa7%).l;hd2qHoCWw.:U:CNV26*a2ly4K\BD29

Station data:
(D29) Purple Mountain Observatory, XuYi Station  (N32.734363 E118.463900)
   China.  Observers H. B. Zhao, B. Li, G. Zhaori, R. Q. Hong, L. F. Hu.
   Measurers H. B. Zhao, B. Li. H. Lu, G. Zhaori. 1.04-m f/1.8 Schmidt + CCD.

Orbital elements:  X80637
   Perihelion 2022 Dec 9.94895 +/- 43.2 TT = 22:46:29 (JD 2459923.44895)
Epoch 2022 Nov 25.0 TT = JDT 2459908.5   Earth MOID: 0.3500   Ma: 0.0926
M 355.75574282 +/- 16               (J2000 ecliptic)             AutoNEOCP
n   0.28391679 +/- 0.253            Peri.  131.78676 +/- 90
a   2.29267233 +/- 1.36             Node   304.03254 +/- 50
e   0.4195252 +/- 0.246             Incl.    3.64462 +/- 2.2
P   3.47                   H 18.72  G  0.15   U 11.8  SR
q 1.33083851 +/- 0.348    Q 3.25450616 +/- 75
From 3 observations 2022 Nov. 24 (40.7 min); mean residual 0".29
Residuals in arcseconds: 
221124 D29  .25-  .16-    221124 D29  .50+  .31+    221124 D29  .25-  .15-    

Ephemerides (geocentric):
Date (UTC) HH   RA             Dec           delta  r     elong  mag " sig PA
---- --------  ------------   ------------  ------ ------ -----  --- --------
2022 12 16 10  04 34 34.618   +31 26 13.63  .35770 1.3323 164.5 17.9  60d  21
2022 12 16 11  04 34 35.893   +31 25 50.87  .35776 1.3323 164.4 17.9  60d  21
2022 12 16 12  04 34 37.171   +31 25 28.09  .35782 1.3323 164.4 17.9  60d  21
2022 12 16 13  04 34 38.452   +31 25 05.29  .35787 1.3324 164.4 17.9  60d  21
2022 12 16 14  04 34 39.735   +31 24 42.47  .35793 1.3324 164.4 17.9  60d  21
2022 12 16 15  04 34 41.021   +31 24 19.64  .35799 1.3324 164.3 17.9  60d  21
2022 12 16 16  04 34 42.310   +31 23 56.79  .35805 1.3324 164.3 17.9  60d  21
2022 12 16 17  04 34 43.602   +31 23 33.93  .35811 1.3324 164.3 17.9  60d  21
2022 12 16 18  04 34 44.896   +31 23 11.05  .35816 1.3325 164.3 17.9  60d  21
2022 12 16 19  04 34 46.193   +31 22 48.15  .35822 1.3325 164.2 17.9  60d  21
2022 12 16 20  04 34 47.492   +31 22 25.24  .35828 1.3325 164.2 17.9  60d  21
2022 12 16 21  04 34 48.795   +31 22 02.31  .35834 1.3325 164.2 17.9  60d  21
2022 12 16 22  04 34 50.100   +31 21 39.36  .35840 1.3325 164.1 17.9  60d  21
2022 12 16 23  04 34 51.408   +31 21 16.40  .35846 1.3326 164.1 17.9  60d  21
2022 12 17 00  04 34 52.719   +31 20 53.43  .35852 1.3326 164.1 17.9  60d  21
2022 12 17 01  04 34 54.032   +31 20 30.43  .35858 1.3326 164.1 17.9  60d  21
2022 12 17 02  04 34 55.348   +31 20 07.42  .35864 1.3326 164.0 17.9  60d  21
2022 12 17 03  04 34 56.667   +31 19 44.40  .35870 1.3326 164.0 17.9  60d  21
2022 12 17 04  04 34 57.989   +31 19 21.36  .35876 1.3327 164.0 17.9  60d  21
2022 12 17 05  04 34 59.313   +31 18 58.30  .35882 1.3327 164.0 17.9  60d  21
2022 12 17 06  04 35 00.641   +31 18 35.23  .35888 1.3327 163.9 17.9  60d  21
2022 12 17 07  04 35 01.971   +31 18 12.15  .35894 1.3327 163.9 17.9  60d  21
2022 12 17 08  04 35 03.304   +31 17 49.05  .35901 1.3327 163.9 17.9  60d  21
2022 12 17 09  04 35 04.639   +31 17 25.93  .35907 1.3328 163.8 17.9  60d  21
2022 12 17 10  04 35 05.978   +31 17 02.80  .35913 1.3328 163.8 17.9  60d  21
2022 12 17 11  04 35 07.319   +31 16 39.65  .35919 1.3328 163.8 17.9  60d  21
2022 12 17 12  04 35 08.663   +31 16 16.49  .35925 1.3328 163.8 17.9  60d  21
2022 12 17 13  04 35 10.010   +31 15 53.31  .35932 1.3329 163.7 17.9  60d  21
2022 12 17 14  04 35 11.360   +31 15 30.12  .35938 1.3329 163.7 17.9  60d  21
2022 12 17 15  04 35 12.713   +31 15 06.91  .35944 1.3329 163.7 17.9  60d  21
2022 12 17 16  04 35 14.068   +31 14 43.69  .35951 1.3329 163.7 17.9  60d  21
2022 12 17 17  04 35 15.426   +31 14 20.46  .35957 1.3329 163.6 17.9  60d  21
2022 12 17 18  04 35 16.788   +31 13 57.21  .35963 1.3330 163.6 17.9  60d  21
2022 12 17 19  04 35 18.152   +31 13 33.94  .35970 1.3330 163.6 17.9  60d  21
2022 12 17 20  04 35 19.518   +31 13 10.66  .35976 1.3330 163.5 17.9  60d  21
2022 12 17 21  04 35 20.888   +31 12 47.37  .35983 1.3330 163.5 17.9  60d  21
2022 12 17 22  04 35 22.261   +31 12 24.06  .35989 1.3331 163.5 17.9  60d  21
2022 12 17 23  04 35 23.636   +31 12 00.74  .35996 1.3331 163.5 17.9  60d  21
2022 12 18 00  04 35 25.015   +31 11 37.40  .36002 1.3331 163.4 17.9  60d  21
2022 12 18 01  04 35 26.396   +31 11 14.05  .36009 1.3331 163.4 17.9  60d  21
2022 12 18 02  04 35 27.780   +31 10 50.69  .36015 1.3332 163.4 17.9  60d  21
2022 12 18 03  04 35 29.167   +31 10 27.31  .36022 1.3332 163.3 17.9  60d  21
2022 12 18 04  04 35 30.557   +31 10 03.92  .36029 1.3332 163.3 17.9  60d  21
2022 12 18 05  04 35 31.950   +31 09 40.51  .36035 1.3332 163.3 17.9  60d  21
2022 12 18 06  04 35 33.346   +31 09 17.09  .36042 1.3332 163.3 17.9  60d  21
2022 12 18 07  04 35 34.745   +31 08 53.66  .36049 1.3333 163.2 17.9  60d  21
2022 12 18 08  04 35 36.146   +31 08 30.21  .36055 1.3333 163.2 17.9  60d  21
2022 12 18 09  04 35 37.551   +31 08 06.76  .36062 1.3333 163.2 17.9  60d  21